DELTA 1 DEB, 26832

Orbit data source: Space-Track

DELTA 1 DEB, 26832 is space debris in SSO originally from a launch on Thu, 12 Jun 1975 UTC launched from the Air Force Western Test Range (AFWTR). Debris objects in space refer to the collection of defunct objects orbiting the Earth. Examples of debris include non-operational satellites, rocket bodies, and fragments generated from explosions, collisions, or faulty payload assembly.

Loading next visibility...
Identifier
26832, 1975-052KL
Orbit
SSO
Country
Flag of USUS
Related business
Manufacturer
Unknown
Mission
Spacecraft
Bus & Motor
Unknown
Mass
Unknown
Launch date (UTC)
1975-06-12 (51 years ago)
Launch vehicle
Unknown
Launch site
Air Force Western Test Range (AFWTR)
Object type
Payload
Rocket body
Debris
Shape & HBR
Unknown shape, 0.2 m
Radar Cross Section
Small (<0.1 m²)

Expand to show TLE details & history
Last TLE update: 6 days ago

TLE from 6 days ago
0 DELTA 1 DEB
1 26832U 75052KL  25347.84618236  .00000059  00000-0  46352-3 0  9996
2 26832  99.6113 356.9358 0620562 215.8369 274.1236 12.21473735557553
Epoch: 2025-12-13T20:18Z
TLE epoch observation values (Epoch: 2025-12-13T20:18:30.155Z)
Latitude
56.01818°
Longitude
164.02087°
Altitude
1,590.423 km
Speed
7.081 km/s
True Right ascension
12h 45m 39s
True Declination
55° 52' 31"
Sunlit
Object was in daylight at epoch
Visualization orbit readout
Latitude
Unknown
Longitude
Unknown
Altitude
Unknown
Speed
Unknown
Apparent Right ascension
Unknown
Apparent Declination
Unknown
Sunlit
N/A
Visualization observer readout
Local Sidereal Time
07:08:19
Azimuth
Unknown
Elevation
Unknown
Doppler factor
Unknown
Orbital elements
Apogee altitude
2,077.66 km
Perigee altitude
1,089.512 km
Semi-major axis
7,961.723 km
Eccentricity
0.06206
Inclination
99.6113°
RAAN
356.9358°
Arg. of periapsis
215.8369°
True anomaly
267.00945°
Mean anomaly
274.1236°
Eccentric anomaly
270.56822°
Mean motion
3.05515 °/min
Orbital period
117.83 mins
BSTAR
0.00046352
Loading maneuver chart data...
Computing Atmospheric mass density...
Loading historical data...
Loading historical data...
Loading historical data...
Loading historical data...
Loading historical data...
Loading historical data...
Loading historical data...

Documentation

Showing up to 5 results
|